Regional Weather Roundup
Issued by NWS

Home | Current Version | Previous Version | Text Only | Print | Product List | Glossary On
Versions: 1 2 3 4 5 6 7 8 9 10 11 12 13 14 15 16 17 18 19 20 21 22 23 24 25 26 27 28 29 30 31 32 33 34 35 36 37 38 39 40 41 42 43 44 45 46 47 48 49 50
000
ASUS43 KBIS 271220
RWRND

NORTH DAKOTA REGIONAL WEATHER ROUNDUP
NATIONAL WEATHER SERVICE BISMARCK ND
700 AM CDT MON APR 27 2015

NOTE: "FAIR" INDICATES FEW OR NO CLOUDS BELOW 12,000 FEET WITH NO
SIGNIFICANT WEATHER AND/OR OBSTRUCTIONS TO VISIBILITY.


NDZ001>003-009>011-017-271300-
NORTHWEST NORTH DAKOTA

CITY           SKY/WX    TMP DP  RH WIND       PRES   REMARKS
WILLISTON      LGT RAIN  41  38  89 W6        30.28R
6HR MIN TEMP:  41; 6HR MAX TEMP:  44; 6HR PCP:  0.11;

MINOT          LGT RAIN  40  38  93 NW8       30.24R
MINOT AFB      DRIZZLE   40  40 100 NW9       30.23S
$$

NDZ018>021-031>035-040>046-271300-
SOUTHWEST NORTH DAKOTA

CITY           SKY/WX    TMP DP  RH WIND       PRES   REMARKS
BISMARCK       CLOUDY    45  44  97 NW9       30.22R FOG
6HR MIN TEMP:  40; 6HR MAX TEMP:  46;

DICKINSON      LGT RAIN  41  40  96 N9        30.22R FOG
GARRISON         N/A     41  39  93 N10       30.23R
6HR MIN TEMP:  41; 6HR MAX TEMP:  46; 6HR PCP:  0.02;

HETTINGER ARPT CLOUDY    41  39  93 NW15      30.23R
$$

NDZ004>008-012>016-024-026-027-054-271300-
NORTHEAST NORTH DAKOTA

CITY           SKY/WX    TMP DP  RH WIND       PRES   REMARKS
GRAND FORKS    MOCLDY    34  28  79 S3        30.18S
GRND FRKS AFB  MOCLDY    35  32  89 SW6       30.18S
DEVILS LAKE    CLOUDY    45  39  81 N12       30.20S
$$

NDZ022-023-025-028>030-036>039-047>053-271300-
SOUTHEAST NORTH DAKOTA

CITY           SKY/WX    TMP DP  RH WIND       PRES   REMARKS
FARGO          PTCLDY    37  25  61 SW5       30.20R
6HR MIN TEMP:  34; 6HR MAX TEMP:  48;

JAMESTOWN      PTCLDY    36  30  79 SW3       30.19R
$$




USA.gov is the U.S. government's official web portal to all federal, state and local government web resources and services.